STARLINK H

Last updated on Wed Apr 23 2025 00:02:06 GMT+0000 (Coordinated Universal Time)

1 63576U 25076H 25112.75002315 -.00729017 17272-3 -19460-2 0 9993 2 63576 43.0019 346.1752 0002115 256.9391 328.4257 15.93552211 2588

Satellite not in orbit